Location: Bogis-Bossey
(46.3500°N, 6.1667°E)
Time: 18:34:23
(UTC+00:00)

Resurs 01 Rocket - Pass Details

Date: 17 August 2022
Orbit: 634 x 643 km, 97.9° (Epoch: 01 October)

Event Time Altitude Azimuth Distance (km) Brightness Sun altitude
Exits shadow 21:27:51 - 228° (SW) 2,478 4.6 -23.5°
Reaches altitude 10° 21:29:53 10° 248° (WSW) 2,029 4.3 -23.7°
Maximum altitude 21:31:40 12° 272° (W) 1,887 4.5 -23.9°
Drops below altitude 10° 21:33:27 10° 296° (WNW) 2,033 5.0 -24.1°
Sets 21:37:03 0° 327° (NNW) 2,947 6.5 -24.4°
